COSMOS 1275 DEB, 13464

Orbit data source: Space-Track

COSMOS 1275 DEB, 13464 is space debris in LEO originally from a launch on Thu, 04 Jun 1981 UTC launched from the Plesetsk Missile And Space Complex (PKMTR). Debris objects in space refer to the collection of defunct objects orbiting the Earth. Examples of debris include non-operational satellites, rocket bodies, and fragments generated from explosions, collisions, or faulty payload assembly.

Loading next visibility...
Identifier
13464, 1981-053FL
Orbit
LEO
Country
Flag of CISCIS
Related business
Manufacturer
Unknown
Mission
Spacecraft
Bus & Motor
Unknown
Mass
Unknown
Launch date (UTC)
1981-06-04 (45 years ago)
Launch vehicle
Unknown
Launch site
Plesetsk Missile And Space Complex (PKMTR)
Object type
Payload
Rocket body
Debris
Shape & HBR
Unknown shape, 0.1 m
Radar Cross Section
Small (<0.1 m²)

Expand to show TLE details & history
Last TLE update: 1 day ago

TLE from 1 day ago
0 COSMOS 1275 DEB
1 13464U 81053FL  26033.43414626  .00007852  00000-0  24101-2 0  9991
2 13464  82.9084 160.0467 0024978 105.9862 321.4222 14.41366886237595
Epoch: 2026-02-02T10:25Z
TLE epoch observation values (Epoch: 2026-02-02T10:25:10.236Z)
Latitude
66.29272°
Longitude
-112.50797°
Altitude
751.547 km
Speed
7.492 km/s
True Right ascension
11h 45m 39s
True Declination
66° 09' 57"
Sunlit
Object was in full shadow at epoch
Visualization orbit readout
Latitude
Unknown
Longitude
Unknown
Altitude
Unknown
Speed
Unknown
Apparent Right ascension
Unknown
Apparent Declination
Unknown
Sunlit
N/A
Visualization observer readout
Local Sidereal Time
13:45:18
Azimuth
Unknown
Elevation
Unknown
Doppler factor
Unknown
Orbital elements
Apogee altitude
768.852 km
Perigee altitude
733.237 km
Semi-major axis
7,129.182 km
Eccentricity
0.0025
Inclination
82.9084°
RAAN
160.0467°
Arg. of periapsis
105.9862°
True anomaly
321.24328°
Mean anomaly
321.4222°
Eccentric anomaly
321.33278°
Mean motion
3.60565 °/min
Orbital period
99.84 mins
BSTAR
0.0024101
Loading maneuver chart data...
Computing Atmospheric mass density...

Documentation

Showing up to 5 results
|